Retour au catalogue

STARLINK-30396

ActifCommunicationsVLEO
NORAD 57964·PAYLOAD·🇺🇸 United States

Lancé Sep 30, 2023 depuis Cape Canaveral Space Force Station

Loading…

Prochains Passages (prochaines 24 heures)

TLE

FraisSource: CelesTrak SupGP

Époque: Sep 14, 2026, 22:10 UTC

1 57964C 23151A   26257.92409722 -.00017445  00000+0 -63197-3 0  2578
2 57964  43.0033 347.6212 0001626 266.8187  99.3102 15.27581849    19

Suivez STARLINK-30396 en temps réel avec AllMySat

Download on the App Store